{"data":{"norad_id":62685,"intl_designator":"2025-009CE","name":"FLOCK 4G-33","alt_names":[],"object_type":"PAYLOAD","status":"ACTIVE","operator":null,"country":"US","launch_date":"2025-01-14","launch_site_code":"AFWTR","launch_vehicle":null,"mission":null,"orbit_class":"UNKNOWN","rcs_meters":null,"size_class":null,"mass_kg":null,"dimensions":null,"purposes":["earth_obs"],"wikipedia_slug":null,"has_3d_model":false,"image_url":null,"decayed_at":null,"tle_current":{"epoch":"2026-05-25T03:45:08.403264Z","epoch_age_seconds":65525,"freshness":"FRESH","line1":"1 62685U 25009CE  26145.15634726  .00006027  00000+0  24316-3 0  9998","line2":"2 62685  97.3948 225.2964 0006719  62.8118 297.3804 15.25151826 75290","mean_motion":15.25151826,"eccentricity":0.0006719,"inclination_deg":97.3948,"raan_deg":225.2964,"arg_perigee_deg":62.8118,"mean_anomaly_deg":297.3804,"bstar":0.00024316,"rev_number":7529,"period_min":94.416829554384,"perigee_km":485.71464462326,"apogee_km":494.94448999641,"semimajor_km":6868.4665673098,"source":"CELESTRAK","updated_at":"2026-05-25T13:38:13.343823Z"}}}